• In Belarus
  • List of Countries
  • For 7 days
  • Water Temperature
  • Satellite Maps
  • Weather Map
  • Weather Widgets
  • user-avatar
    Login

    Hourly Weather Burshtyn

    Today, 12 December, Tuesday

    Time Temperature Precipitation Wind Pressure Humidity
    00:00 +5°C° 0 mm 5 mps 731 mmHg 76%
    01:00 +5°C° 0 mm 5 mps 731 mmHg 76%
    02:00 +4°C° 0 mm 3 mps 730 mmHg 83%
    03:00 +4°C° 0 mm 3 mps 730 mmHg 82%
    04:00 +5°C° 0 mm 4 mps 730 mmHg 81%
    05:00 +5°C° 0 mm 4 mps 731 mmHg 79%
    06:00 +5°C° 0 mm 4 mps 731 mmHg 79%
    07:00 +5°C° 0 mm 4 mps 731 mmHg 78%
    08:00 +5°C° 0 mm 3 mps 730 mmHg 83%
    09:00 +6°C° 0 mm 4 mps 731 mmHg 80%
    10:00 +8°C° 0 mm 4 mps 731 mmHg 76%
    11:00 +9°C° 0 mm 5 mps 732 mmHg 73%
    12:00 +10°C° 0 mm 6 mps 732 mmHg 71%
    13:00 +10°C° 0 mm 7 mps 733 mmHg 69%
    14:00 +11°C° 0 mm 8 mps 733 mmHg 67%
    15:00 +10°C° 0 mm 7 mps 734 mmHg 69%
    16:00 +10°C° 0 mm 7 mps 734 mmHg 71%
    17:00 +9°C° 0 mm 7 mps 734 mmHg 73%
    18:00 +9°C° 0 mm 6 mps 735 mmHg 75%
    19:00 +9°C° 0 mm 6 mps 735 mmHg 77%
    20:00 +8°C° 0 mm 5 mps 736 mmHg 79%
    21:00 +8°C° 0 mm 4 mps 736 mmHg 81%
    22:00 +8°C° 0 mm 3 mps 736 mmHg 84%
    23:00 +8°C° 0 mm 3 mps 737 mmHg 86%

    Tomorrow, 13 December, Wednesday

    Time Temperature Precipitation Wind Pressure Humidity
    00:00 +8°C° 0.2 mm 3 mps 737 mmHg 86%
    01:00 +7°C° 0.2 mm 3 mps 738 mmHg 87%
    02:00 +7°C° 0.2 mm 3 mps 738 mmHg 88%
    03:00 +5°C° 0.3 mm 3 mps 738 mmHg 86%
    04:00 +4°C° 0.3 mm 3 mps 738 mmHg 85%
    05:00 +4°C° 0.3 mm 3 mps 739 mmHg 84%
    06:00 +3°C° 0.5 mm 3 mps 739 mmHg 85%
    07:00 +3°C° 0.5 mm 3 mps 739 mmHg 86%
    08:00 +2°C° 0.5 mm 3 mps 739 mmHg 87%
    09:00 +2°C° 0.5 mm 3 mps 739 mmHg 88%
    10:00 +2°C° 0.5 mm 3 mps 740 mmHg 89%
    11:00 +1°C° 0.5 mm 3 mps 740 mmHg 90%
    12:00 +2°C° 0.6 mm 2 mps 740 mmHg 91%
    13:00 +2°C° 0.6 mm 2 mps 739 mmHg 92%
    14:00 +2°C° 0.6 mm 2 mps 739 mmHg 93%
    15:00 +2°C° 0.5 mm 2 mps 739 mmHg 94%
    16:00 +3°C° 0.5 mm 1 mps 739 mmHg 95%
    17:00 +3°C° 0.5 mm 1 mps 738 mmHg 96%
    18:00 +3°C° 0.1 mm 1 mps 738 mmHg 96%
    19:00 +2°C° 0.1 mm 1 mps 738 mmHg 96%
    20:00 +2°C° 0.1 mm 1 mps 738 mmHg 97%
    21:00 +2°C° 0.1 mm 1 mps 737 mmHg 97%
    22:00 +2°C° 0.1 mm 1 mps 737 mmHg 96%
    23:00 +2°C° 0.1 mm 1 mps 737 mmHg 96%

    Day after tomorrow, 14 December, Thursday

    Time Temperature Precipitation Wind Pressure Humidity
    00:00 +2°C° 0 mm 1 mps 736 mmHg 96%
    01:00 +2°C° 0 mm 1 mps 736 mmHg 96%
    02:00 +1°C° 0 mm 1 mps 736 mmHg 96%
    03:00 +1°C° 0 mm 1 mps 735 mmHg 95%
    04:00 -1°C° 0 mm 2 mps 735 mmHg 95%
    05:00 -2°C° 0 mm 2 mps 734 mmHg 94%
    06:00 -1°C° 0 mm 2 mps 734 mmHg 93%
    07:00 -1°C° 0 mm 3 mps 734 mmHg 91%
    08:00 -1°C° 0 mm 3 mps 733 mmHg 90%
    09:00 0°C° 0 mm 3 mps 733 mmHg 87%
    10:00 0°C° 0 mm 4 mps 733 mmHg 84%
    11:00 +1°C° 0 mm 4 mps 733 mmHg 80%
    12:00 +3°C° 0 mm 4 mps 732 mmHg 80%
    13:00 +3°C° 0 mm 4 mps 732 mmHg 79%
    14:00 +4°C° 0 mm 4 mps 732 mmHg 78%
    15:00 +3°C° 0 mm 4 mps 732 mmHg 79%
    16:00 +3°C° 0 mm 4 mps 732 mmHg 79%
    17:00 +3°C° 0 mm 4 mps 733 mmHg 79%
    18:00 +3°C° 0 mm 4 mps 732 mmHg 80%
    19:00 +1°C° 0 mm 4 mps 732 mmHg 81%
    20:00 +1°C° 0 mm 4 mps 732 mmHg 81%
    21:00 +3°C° 0.1 mm 4 mps 732 mmHg 81%
    22:00 +3°C° 0.1 mm 4 mps 732 mmHg 81%
    23:00 +3°C° 0.1 mm 4 mps 733 mmHg 80%

    15 December, Friday

    Time Temperature Precipitation Wind Pressure Humidity
    00:00 +3°C° 0.1 mm 4 mps 732 mmHg 81%
    01:00 +3°C° 0.1 mm 4 mps 731 mmHg 82%
    02:00 +3°C° 0.1 mm 4 mps 731 mmHg 83%
    03:00 +1°C° 0 mm 4 mps 730 mmHg 84%
    04:00 +1°C° 0 mm 4 mps 729 mmHg 85%
    05:00 +1°C° 0 mm 5 mps 729 mmHg 85%
    06:00 +1°C° 0 mm 5 mps 728 mmHg 85%
    07:00 +1°C° 0 mm 5 mps 728 mmHg 85%
    08:00 +1°C° 0 mm 5 mps 727 mmHg 85%
    09:00 +3°C° 0.2 mm 4 mps 727 mmHg 85%
    10:00 +4°C° 0.2 mm 4 mps 727 mmHg 85%
    11:00 +5°C° 0.2 mm 4 mps 727 mmHg 84%
    12:00 +5°C° 0.5 mm 4 mps 727 mmHg 85%
    13:00 +5°C° 0.5 mm 3 mps 727 mmHg 86%
    14:00 +5°C° 0.5 mm 3 mps 727 mmHg 87%
    15:00 +5°C° 0.6 mm 3 mps 728 mmHg 89%
    16:00 +5°C° 0.6 mm 2 mps 728 mmHg 90%
    17:00 +5°C° 0.6 mm 2 mps 729 mmHg 91%
    18:00 +4°C° 0.1 mm 2 mps 729 mmHg 89%
    19:00 +4°C° 0.1 mm 2 mps 729 mmHg 87%
    20:00 +4°C° 0.1 mm 1 mps 730 mmHg 85%
    21:00 +4°C° 0.6 mm 1 mps 730 mmHg 83%
    22:00 +4°C° 0.6 mm 1 mps 730 mmHg 82%
    23:00 +3°C° 0.6 mm 1 mps 730 mmHg 80%

    16 December, Saturday

    Time Temperature Precipitation Wind Pressure Humidity
    00:00 +3°C° 1.6 mm 1 mps 730 mmHg 84%
    01:00 +2°C° 1.6 mm 1 mps 730 mmHg 88%
    02:00 +2°C° 1.6 mm 1 mps 730 mmHg 91%
    03:00 +2°C° 1.1 mm 1 mps 730 mmHg 93%
    04:00 +2°C° 1.1 mm 1 mps 730 mmHg 95%
    05:00 +2°C° 1.1 mm 1 mps 730 mmHg 97%
    06:00 +2°C° 0.7 mm 1 mps 730 mmHg 97%
    07:00 +2°C° 0.7 mm 1 mps 730 mmHg 97%
    08:00 +2°C° 0.7 mm 1 mps 730 mmHg 97%
    09:00 +2°C° 0.6 mm 1 mps 730 mmHg 97%
    10:00 +2°C° 0.6 mm 1 mps 731 mmHg 98%
    11:00 +2°C° 0.6 mm 1 mps 731 mmHg 99%
    12:00 +2°C° 0.4 mm 1 mps 731 mmHg 99%
    13:00 +1°C° 0.4 mm 2 mps 731 mmHg 99%
    14:00 +1°C° 0.4 mm 2 mps 732 mmHg 99%
    15:00 +2°C° 0.2 mm 1 mps 732 mmHg 98%
    16:00 +2°C° 0.2 mm 1 mps 732 mmHg 98%
    17:00 +2°C° 0.2 mm 1 mps 733 mmHg 97%
    18:00 +1°C° 0.1 mm 1 mps 734 mmHg 97%
    19:00 +1°C° 0.1 mm 1 mps 734 mmHg 96%
    20:00 +1°C° 0.1 mm 1 mps 735 mmHg 95%
    21:00 0°C° 0 mm 1 mps 735 mmHg 95%
    22:00 -1°C° 0 mm 1 mps 735 mmHg 94%
    23:00 -1°C° 0 mm 1 mps 736 mmHg 93%

    17 December, Sunday

    Time Temperature Precipitation Wind Pressure Humidity
    00:00 -1°C° 0 mm 1 mps 736 mmHg 93%
    01:00 -1°C° 0 mm 1 mps 736 mmHg 92%
    02:00 -1°C° 0 mm 1 mps 736 mmHg 91%
    03:00 -1°C° 0 mm 1 mps 736 mmHg 90%
    04:00 -1°C° 0 mm 1 mps 736 mmHg 90%
    05:00 -1°C° 0 mm 1 mps 737 mmHg 90%
    06:00 -1°C° 0 mm 1 mps 737 mmHg 90%
    07:00 -1°C° 0 mm 1 mps 737 mmHg 91%
    08:00 -1°C° 0 mm 1 mps 738 mmHg 91%
    09:00 -1°C° 0 mm 1 mps 738 mmHg 92%
    10:00 -2°C° 0 mm 2 mps 738 mmHg 93%
    11:00 -1°C° 0 mm 2 mps 738 mmHg 93%
    12:00 -1°C° 0 mm 2 mps 738 mmHg 93%
    13:00 -1°C° 0 mm 3 mps 738 mmHg 93%
    14:00 -1°C° 0 mm 3 mps 738 mmHg 93%
    15:00 -1°C° 0 mm 3 mps 738 mmHg 93%
    16:00 -1°C° 0 mm 3 mps 739 mmHg 93%
    17:00 -2°C° 0 mm 3 mps 739 mmHg 93%
    18:00 -2°C° 0 mm 3 mps 739 mmHg 93%
    19:00 -2°C° 0 mm 3 mps 740 mmHg 93%
    20:00 -2°C° 0 mm 3 mps 740 mmHg 93%
    21:00 -2°C° 0 mm 3 mps 740 mmHg 92%
    22:00 -2°C° 0 mm 3 mps 741 mmHg 92%
    23:00 -2°C° 0 mm 3 mps 741 mmHg 91%
    Show more